Darstellungsparameter: Aktuell verwendete Einstellungen:
Skalierung der Graphiken ... ?
xyx+y,   Skalierungsfaktor:      Skalierung: Modus: x, Faktor: 1
Darstellungszeitraum ... ?
Vom - - bis: - -   Zeitraum: 03.08.2019 - 02.08.2020
Min/Max/Avg-Anzeige ... ?
Zeige MMA aktuell
Zeige MMA Monat
Zeige MMA alles
Zeige --A aktuell
Zeige --A Monat
Zeige --A alles
Keine MMA-Anzeige
MMA:
Keine MMA-Graphiken
MMA-Basis: 03.08.2019 - 02.08.2020
Quicknavigation für Darstellung... ?
Tage:      1T, 2T, 3T, 5T -1T -2T -3T -5T +1T +2T +3T +5T
Wochen: 1W, 2W, 3W -1W -2W -3W +1W +2W +3W
Monate: 1M, 3M, 6M -1M -3M -6M +1M +3M +6M
Jahre:    1J, 3J, 5J, 10J -1J -3J -5J -10J +1J +3J +5J +10J
Nutze für die Darstellung ... ?
Originaldaten oder ...
Mittelwerte Minima Maxima auf...
Stundenbasis Tagesbasis Wochenbasis
Monatsbasis Jahresbasis      Datenbasis: Mittelwerte auf Tagesbasis
Darstellen als:
Statistik (Auto) Statistik J:M      Darstellung:
Zur Graphik,    zurück zur Übersicht aller Sensoren.
 
Tabellarische Datenbersicht: ?
 
Sensor: Nr:Datum:Temp:Feuchte:
Aussen-T/F 1 03-08-2019 00:00:00 20.77167 C 24.6333 %
2 04-08-2019 00:00:00 21.00667 C 28.3000 %
3 05-08-2019 00:00:00 22.56833 C 24.9167 %
4 06-08-2019 00:00:00 20.0075 C 30.3333 %
5 07-08-2019 00:00:00 19.10167 C 41.3833 %
6 08-08-2019 00:00:00 20.55667 C 30.6417 %
7 09-08-2019 00:00:00 19.73833 C 39.4583 %
8 10-08-2019 00:00:00 20.72917 C 37.6833 %
9 11-08-2019 00:00:00 17.03333 C 35.9000 %
10 12-08-2019 00:00:00 16.51583 C 38.9833 %
11 13-08-2019 00:00:00 16.10833 C 35.2833 %
12 14-08-2019 00:00:00 16.6875 C 34.0417 %
13 15-08-2019 00:00:00 17.20583 C 40.0250 %
14 16-08-2019 00:00:00 17.84 C 34.2250 %
15 17-08-2019 00:00:00 17.89333 C 38.0750 %
16 18-08-2019 00:00:00 19.71833 C 44.5000 %
17 19-08-2019 00:00:00 18.45167 C 33.8417 %
18 20-08-2019 00:00:00 15.91167 C 33.3250 %
19 21-08-2019 00:00:00 16.52917 C 33.4750 %
20 22-08-2019 00:00:00 17.12333 C 32.3667 %
21 23-08-2019 00:00:00 18.31667 C 31.5083 %
22 24-08-2019 00:00:00 19.36333 C 30.9833 %
23 25-08-2019 00:00:00 21.54583 C 29.8917 %
24 26-08-2019 00:00:00 22.17 C 33.4833 %
25 27-08-2019 00:00:00 22.70333 C 35.1667 %
Sensor: Nr:Datum:Temp:Feuchte:
Aussen-T/F 26 28-08-2019 00:00:00 23.4425 C 30.4583 %
27 29-08-2019 00:00:00 22.20333 C 28.3583 %
28 30-08-2019 00:00:00 21.07 C 29.2583 %
29 31-08-2019 00:00:00 21.975 C 30.7583 %
30 01-09-2019 00:00:00 18.8525 C 26.8333 %
31 02-09-2019 00:00:00 15.49333 C 28.2000 %
32 03-09-2019 00:00:00 15.72917 C 28.0833 %
33 04-09-2019 00:00:00 16.9525 C 33.9667 %
34 05-09-2019 00:00:00 15.59 C 26.2917 %
35 06-09-2019 00:00:00 13.58917 C 31.1917 %
36 07-09-2019 00:00:00 12.6975 C 39.5000 %
37 08-09-2019 00:00:00 12.7439 C 48.5935 %
38 09-09-2019 00:00:00 15.23733 C 38.6667 %
39 10-09-2019 00:00:00 12.20486 C 22.8264 %
40 11-09-2019 00:00:00 13.35556 C 20.8472 %
41 12-09-2019 00:00:00 19.325 C 20.0000 %
42 13-09-2019 00:00:00 17.86806 C 20.1111 %
43 14-09-2019 00:00:00 15.93333 C 22.4375 %
44 15-09-2019 00:00:00 15.65694 C 21.2778 %
45 16-09-2019 00:00:00 16.21389 C 20.0000 %
46 17-09-2019 00:00:00 15.87708 C 20.0000 %
47 18-09-2019 00:00:00 11.47361 C 20.7917 %
48 19-09-2019 00:00:00 10.53333 C 21.8194 %
49 20-09-2019 00:00:00 10.80486 C 20.8472 %
50 21-09-2019 00:00:00 12.45278 C 20.6597 %
Sensor: Nr:Datum:Temp:Feuchte:
Aussen-T/F 51 22-09-2019 00:00:00 14.78542 C 20.7500 %
52 23-09-2019 00:00:00 16.6875 C 22.1528 %
53 24-09-2019 00:00:00 13.94306 C 26.6319 %
54 25-09-2019 00:00:00 15.31806 C 25.0417 %
55 26-09-2019 00:00:00 16.10903 C 26.0000 %
56 27-09-2019 00:00:00 16.23333 C 23.7708 %
57 28-09-2019 00:00:00 15.40208 C 22.5833 %
58 29-09-2019 00:00:00 16.05972 C 21.6597 %
59 30-09-2019 00:00:00 15.48194 C 21.1319 %
60 01-10-2019 00:00:00 15.84375 C 23.4931 %
61 02-10-2019 00:00:00 12.57569 C 23.6111 %
62 03-10-2019 00:00:00 9.35625 C 27.6944 %
63 04-10-2019 00:00:00 10.03681 C 31.8403 %
64 05-10-2019 00:00:00 10.32986 C 26.5903 %
65 06-10-2019 00:00:00 7.85764 C 34.1250 %
66 07-10-2019 00:00:00 9.80764 C 31.8819 %
67 08-10-2019 00:00:00 12.35833 C 31.0694 %
68 09-10-2019 00:00:00 11.56667 C 27.7431 %
69 10-10-2019 00:00:00 11.49097 C 26.2153 %
70 11-10-2019 00:00:00 12.41458 C 28.8194 %
71 12-10-2019 00:00:00 13.21111 C 29.6875 %
72 13-10-2019 00:00:00 16.35417 C 28.4722 %
73 14-10-2019 00:00:00 15.8125 C 27.6528 %
74 15-10-2019 00:00:00 13.94028 C 29.8611 %
75 16-10-2019 00:00:00 12.42153 C 29.2917 %
Sensor: Nr:Datum:Temp:Feuchte:
Aussen-T/F 76 17-10-2019 00:00:00 14.32708 C 27.4167 %
77 18-10-2019 00:00:00 12.3125 C 29.7292 %
78 19-10-2019 00:00:00 12.78194 C 28.2083 %
79 20-10-2019 00:00:00 13.0875 C 34.7778 %
80 21-10-2019 00:00:00 13.30486 C 29.2014 %
81 22-10-2019 00:00:00 11.45 C 27.8819 %
82 23-10-2019 00:00:00 10.68403 C 31.1181 %
83 24-10-2019 00:00:00 13.85208 C 27.9236 %
84 25-10-2019 00:00:00 13.1625 C 24.9444 %
85 26-10-2019 00:00:00 12.72639 C 27.5417 %
86 27-10-2019 00:00:00 9.68467 C 30.8733 %
87 28-10-2019 00:00:00 5.91597 C 35.2014 %
88 29-10-2019 00:00:00 6.21181 C 29.3264 %
89 30-10-2019 00:00:00 2.93333 C 34.5347 %
90 31-10-2019 00:00:00 1.41875 C 34.8333 %
91 01-11-2019 00:00:00 5.44792 C 36.7292 %
92 02-11-2019 00:00:00 12.8125 C 27.6458 %
93 03-11-2019 00:00:00 11.45069 C 29.7639 %
94 04-11-2019 00:00:00 9.88542 C 30.2153 %
95 05-11-2019 00:00:00 9.25069 C 27.4306 %
96 06-11-2019 00:00:00 8.33542 C 34.7014 %
97 07-11-2019 00:00:00 7.30278 C 33.8333 %
98 08-11-2019 00:00:00 4.29028 C 37.7153 %
99 09-11-2019 00:00:00 4.26806 C 33.1111 %
100 10-11-2019 00:00:00 2.51319 C 34.9861 %
Sensor: Nr:Datum:Temp:Feuchte:
Aussen-T/F 101 11-11-2019 00:00:00 4.2 C 27.4792 %
102 12-11-2019 00:00:00 5.41667 C 25.4792 %
103 13-11-2019 00:00:00 4.93472 C 22.9861 %
104 14-11-2019 00:00:00 4.86042 C 26.9861 %
105 15-11-2019 00:00:00 4.08472 C 26.3333 %
106 16-11-2019 00:00:00 1.19444 C 38.8125 %
107 17-11-2019 00:00:00 2.39861 C 40.2708 %
108 18-11-2019 00:00:00 3.51667 C 36.2847 %
109 19-11-2019 00:00:00 3.06736 C 36.5833 %
110 20-11-2019 00:00:00 0.75972 C 37.8403 %
111 21-11-2019 00:00:00 1.18951 C 39.3846 %
112 22-11-2019 00:00:00 3.65972 C 35.6806 %
113 23-11-2019 00:00:00 4.64653 C 33.3889 %
114 24-11-2019 00:00:00 1.99861 C 41.4722 %
115 25-11-2019 00:00:00 4.16319 C 39.3681 %
116 26-11-2019 00:00:00 7.75903 C 34.8472 %
117 27-11-2019 00:00:00 9.72083 C 30.6875 %
118 28-11-2019 00:00:00 10.55833 C 22.1319 %
119 29-11-2019 00:00:00 5.75486 C 30.7639 %
120 30-11-2019 00:00:00 0.48194 C 42.0972 %
121 01-12-2019 00:00:00 1.14236 C 33.0139 %
122 02-12-2019 00:00:00 1.20556 C 36.2986 %
123 03-12-2019 00:00:00 3.97431 C 39.2292 %
124 04-12-2019 00:00:00 0.41389 C 41.6111 %
125 05-12-2019 00:00:00 -2.03194 C 42.0972 %
Sensor: Nr:Datum:Temp:Feuchte:
Aussen-T/F 126 06-12-2019 00:00:00 2.6125 C 34.4722 %
127 07-12-2019 00:00:00 8.20694 C 27.7292 %
128 08-12-2019 00:00:00 9.69931 C 24.2778 %
129 09-12-2019 00:00:00 7.09444 C 23.9722 %
130 10-12-2019 00:00:00 2.37361 C 34.0000 %
131 11-12-2019 00:00:00 3.12569 C 39.3056 %
132 12-12-2019 00:00:00 2.64931 C 37.2500 %
133 13-12-2019 00:00:00 3.25278 C 34.0069 %
134 14-12-2019 00:00:00 6.22222 C 28.0625 %
135 15-12-2019 00:00:00 7.24792 C 30.8958 %
136 16-12-2019 00:00:00 7.47361 C 39.2986 %
137 17-12-2019 00:00:00 9.69514 C 31.9653 %
138 18-12-2019 00:00:00 6.95069 C 37.4792 %
139 19-12-2019 00:00:00 4.60972 C 40.5417 %
140 20-12-2019 00:00:00 6.87778 C 35.7847 %
141 21-12-2019 00:00:00 6.42778 C 32.4306 %
142 22-12-2019 00:00:00 7.57917 C 31.0556 %
143 23-12-2019 00:00:00 7.34861 C 28.6111 %
144 24-12-2019 00:00:00 7.20278 C 29.9097 %
145 25-12-2019 00:00:00 6.91944 C 32.8333 %
146 26-12-2019 00:00:00 4.25278 C 40.6250 %
147 27-12-2019 00:00:00 4.41181 C 36.8819 %
148 28-12-2019 00:00:00 -1.22431 C 42.5000 %
149 29-12-2019 00:00:00 -2.07708 C 39.8819 %
150 30-12-2019 00:00:00 -1.99931 C 39.1319 %
Sensor: Nr:Datum:Temp:Feuchte:
Aussen-T/F 151 31-12-2019 00:00:00 -0.41736 C 39.5556 %
152 01-01-2020 00:00:00 -0.10764 C 41.3403 %
153 02-01-2020 00:00:00 0.98958 C 39.7014 %
154 03-01-2020 00:00:00 7.00972 C 33.4653 %
155 04-01-2020 00:00:00 4.78264 C 32.5903 %
156 05-01-2020 00:00:00 5.21806 C 35.8750 %
157 06-01-2020 00:00:00 2.11667 C 38.1667 %
158 07-01-2020 00:00:00 4.43611 C 34.6944 %
159 08-01-2020 00:00:00 7.71389 C 34.4167 %
160 09-01-2020 00:00:00 10.33542 C 35.2292 %
161 10-01-2020 00:00:00 8.27917 C 30.8958 %
162 11-01-2020 00:00:00 3.61806 C 33.7639 %
163 12-01-2020 00:00:00 4.57083 C 30.3889 %
164 13-01-2020 00:00:00 5.88472 C 35.0903 %
165 14-01-2020 00:00:00 9.28264 C 24.1181 %
166 15-01-2020 00:00:00 10.27083 C 23.7500 %
167 16-01-2020 00:00:00 7.07569 C 40.1944 %
168 17-01-2020 00:00:00 5.27986 C 39.1944 %
169 18-01-2020 00:00:00 3.79028 C 32.6042 %
170 19-01-2020 00:00:00 3.01389 C 40.8194 %
171 20-01-2020 00:00:00 1.64861 C 39.3889 %
172 21-01-2020 00:00:00 -2.675 C 44.7986 %
173 22-01-2020 00:00:00 -1.95347 C 44.7153 %
174 23-01-2020 00:00:00 0.53819 C 43.6458 %
175 24-01-2020 00:00:00 0.81319 C 35.7222 %
Sensor: Nr:Datum:Temp:Feuchte:
Aussen-T/F 176 25-01-2020 00:00:00 1.99236 C 39.2014 %
177 26-01-2020 00:00:00 2.13056 C 41.5625 %
178 27-01-2020 00:00:00 5.48542 C 39.8264 %
179 28-01-2020 00:00:00 5.07708 C 30.3750 %
180 29-01-2020 00:00:00 4.20764 C 29.8611 %
181 30-01-2020 00:00:00 7.57569 C 29.5694 %
182 31-01-2020 00:00:00 12.86181 C 27.9167 %
183 01-02-2020 00:00:00 11.16597 C 32.0972 %
184 02-02-2020 00:00:00 9.925 C 31.1319 %
185 03-02-2020 00:00:00 10.19236 C 29.5139 %
186 04-02-2020 00:00:00 4.29514 C 36.4097 %
187 05-02-2020 00:00:00 3.05069 C 37.1458 %
188 06-02-2020 00:00:00 0.04514 C 42.7500 %
189 07-02-2020 00:00:00 -0.30764 C 42.8264 %
190 08-02-2020 00:00:00 1.01389 C 43.0069 %
191 09-02-2020 00:00:00 8.36458 C 32.5764 %
192 10-02-2020 00:00:00 7.85 C 31.3611 %
193 11-02-2020 00:00:00 5.29167 C 24.6597 %
194 12-02-2020 00:00:00 4.32083 C 30.5972 %
195 13-02-2020 00:00:00 3.32917 C 42.1250 %
196 14-02-2020 00:00:00 5.46458 C 39.2639 %
197 15-02-2020 00:00:00 5.89931 C 38.0278 %
198 16-02-2020 00:00:00 14.44931 C 23.2431 %
199 17-02-2020 00:00:00 8.25903 C 32.4167 %
200 18-02-2020 00:00:00 6.89097 C 31.0347 %
Sensor: Nr:Datum:Temp:Feuchte:
Aussen-T/F 201 19-02-2020 00:00:00 5.73889 C 30.1875 %
202 20-02-2020 00:00:00 7.7125 C 32.9722 %
203 21-02-2020 00:00:00 4.71042 C 33.5972 %
204 22-02-2020 00:00:00 7.67986 C 30.0347 %
205 23-02-2020 00:00:00 10.01389 C 35.3403 %
206 24-02-2020 00:00:00 7.74653 C 36.3194 %
207 25-02-2020 00:00:00 8.81597 C 32.2778 %
208 26-02-2020 00:00:00 4.37431 C 33.6806 %
209 27-02-2020 00:00:00 2.22153 C 41.6806 %
210 28-02-2020 00:00:00 3.52431 C 38.4514 %
211 29-02-2020 00:00:00 8.60556 C 34.8889 %
212 01-03-2020 00:00:00 7.15694 C 36.0000 %
213 02-03-2020 00:00:00 5.99375 C 40.1667 %
214 03-03-2020 00:00:00 4.26806 C 39.6458 %
215 04-03-2020 00:00:00 5.28958 C 37.5764 %
216 05-03-2020 00:00:00 5.45764 C 43.0833 %
217 06-03-2020 00:00:00 5.63958 C 40.4931 %
218 07-03-2020 00:00:00 6.26458 C 33.7569 %
219 08-03-2020 00:00:00 9.46458 C 32.2361 %
220 09-03-2020 00:00:00 7.81875 C 35.4514 %
221 10-03-2020 00:00:00 9.06181 C 39.4514 %
222 11-03-2020 00:00:00 14.0375 C 35.2639 %
223 12-03-2020 00:00:00 11.01597 C 30.3681 %
224 13-03-2020 00:00:00 6.99236 C 33.4236 %
225 14-03-2020 00:00:00 5.89028 C 38.1667 %
Sensor: Nr:Datum:Temp:Feuchte:
Aussen-T/F 226 15-03-2020 00:00:00 9.14653 C 32.2153 %
227 16-03-2020 00:00:00 9.43264 C 35.6667 %
228 17-03-2020 00:00:00 12.02708 C 33.7847 %
229 18-03-2020 00:00:00 9.92639 C 36.2153 %
230 19-03-2020 00:00:00 12.58194 C 32.0417 %
231 20-03-2020 00:00:00 10.52657 C 36.2308 %
232 21-03-2020 00:00:00 5.89653 C 34.6597 %
233 22-03-2020 00:00:00 4.30139 C 28.5278 %
234 23-03-2020 00:00:00 3.12292 C 27.0764 %
235 24-03-2020 00:00:00 2.82431 C 27.8403 %
236 25-03-2020 00:00:00 3.67014 C 25.0486 %
237 26-03-2020 00:00:00 5.25486 C 23.4931 %
238 27-03-2020 00:00:00 8.10139 C 29.8819 %
239 28-03-2020 00:00:00 9.69236 C 30.9306 %
240 29-03-2020 00:00:00 5.0942 C 30.1377 %
241 30-03-2020 00:00:00 2.89028 C 29.9167 %
242 31-03-2020 00:00:00 5.79792 C 30.1528 %
243 01-04-2020 00:00:00 4.16111 C 29.6944 %
244 02-04-2020 00:00:00 5.26806 C 31.1944 %
245 03-04-2020 00:00:00 7.93542 C 28.5069 %
246 04-04-2020 00:00:00 6.89375 C 31.8958 %
247 05-04-2020 00:00:00 9.74514 C 32.0625 %
248 06-04-2020 00:00:00 12.17708 C 29.7431 %
249 07-04-2020 00:00:00 14.2875 C 28.9028 %
250 08-04-2020 00:00:00 15.02153 C 31.1528 %
Sensor: Nr:Datum:Temp:Feuchte:
Aussen-T/F 251 09-04-2020 00:00:00 15.89514 C 27.6458 %
252 10-04-2020 00:00:00 14.80972 C 29.8333 %
253 11-04-2020 00:00:00 14.775 C 25.4861 %
254 12-04-2020 00:00:00 15.71319 C 27.3056 %
255 13-04-2020 00:00:00 9.43542 C 29.6944 %
256 14-04-2020 00:00:00 6.54583 C 28.1042 %
257 15-04-2020 00:00:00 9.17222 C 30.8750 %
258 16-04-2020 00:00:00 13.09792 C 29.6667 %
259 17-04-2020 00:00:00 15.68056 C 30.2500 %
260 18-04-2020 00:00:00 14.81597 C 32.5000 %
261 19-04-2020 00:00:00 13.35694 C 32.8889 %
262 20-04-2020 00:00:00 12.80069 C 22.9861 %
263 21-04-2020 00:00:00 13.68472 C 21.3889 %
264 22-04-2020 00:00:00 14.69375 C 23.2153 %
265 23-04-2020 00:00:00 14.90347 C 25.2917 %
266 24-04-2020 00:00:00 14.72361 C 27.0278 %
267 25-04-2020 00:00:00 13.03611 C 25.6597 %
268 26-04-2020 00:00:00 12.22917 C 31.0069 %
269 27-04-2020 00:00:00 13.17153 C 29.7431 %
270 28-04-2020 00:00:00 12.62153 C 36.5556 %
271 29-04-2020 00:00:00 14.57569 C 31.0903 %
272 30-04-2020 00:00:00 12.09722 C 36.4583 %
273 01-05-2020 00:00:00 10.66042 C 37.3542 %
274 02-05-2020 00:00:00 10.00764 C 36.3611 %
275 03-05-2020 00:00:00 10.75833 C 34.4653 %
Sensor: Nr:Datum:Temp:Feuchte:
Aussen-T/F 276 04-05-2020 00:00:00 11.74722 C 36.3681 %
277 05-05-2020 00:00:00 11.26667 C 32.2083 %
278 06-05-2020 00:00:00 11.08403 C 30.6181 %
279 07-05-2020 00:00:00 13.50764 C 30.8056 %
280 08-05-2020 00:00:00 15.85208 C 29.3056 %
281 09-05-2020 00:00:00 16.28611 C 29.0139 %
282 10-05-2020 00:00:00 15.97153 C 36.6389 %
283 11-05-2020 00:00:00 9.26875 C 32.4028 %
284 12-05-2020 00:00:00 8.55764 C 29.8264 %
285 13-05-2020 00:00:00 9.41528 C 30.4444 %
286 14-05-2020 00:00:00 9.74792 C 29.2917 %
287 15-05-2020 00:00:00 11.27986 C 28.5903 %
288 16-05-2020 00:00:00 11.95833 C 29.2986 %
289 17-05-2020 00:00:00 14.25556 C 28.0625 %
290 18-05-2020 00:00:00 16.81042 C 28.8681 %
291 19-05-2020 00:00:00 17.67986 C 29.2153 %
292 20-05-2020 00:00:00 18.90417 C 29.3611 %
293 21-05-2020 00:00:00 20.425 C 29.2361 %
294 22-05-2020 00:00:00 20.27222 C 29.9583 %
295 23-05-2020 00:00:00 13.65972 C 37.1111 %
296 24-05-2020 00:00:00 13.68056 C 31.3750 %
297 25-05-2020 00:00:00 16.41181 C 30.5625 %
298 26-05-2020 00:00:00 15.69306 C 31.7292 %
299 27-05-2020 00:00:00 18.09444 C 29.6597 %
300 28-05-2020 00:00:00 18.81736 C 24.7153 %
Sensor: Nr:Datum:Temp:Feuchte:
Aussen-T/F 301 29-05-2020 00:00:00 16.43681 C 26.8056 %
302 30-05-2020 00:00:00 16.61667 C 24.5000 %
303 31-05-2020 00:00:00 16.21736 C 26.2153 %
304 01-06-2020 00:00:00 19.27153 C 26.8889 %
305 02-06-2020 00:00:00 21.30486 C 25.6250 %
306 03-06-2020 00:00:00 21.06597 C 25.1042 %
307 04-06-2020 00:00:00 14.39583 C 39.8403 %
308 05-06-2020 00:00:00 11.4625 C 37.4306 %
309 06-06-2020 00:00:00 12.76111 C 34.0347 %
310 07-06-2020 00:00:00 13.84514 C 31.7083 %
311 08-06-2020 00:00:00 15.57014 C 31.2986 %
312 09-06-2020 00:00:00 14.49861 C 37.8333 %
313 10-06-2020 00:00:00 15.8625 C 35.7431 %
314 11-06-2020 00:00:00 15.99028 C 36.5486 %
315 12-06-2020 00:00:00 20.73403 C 31.5139 %
316 13-06-2020 00:00:00 21.73403 C 27.8889 %
317 14-06-2020 00:00:00 19.10208 C 32.2222 %
318 15-06-2020 00:00:00 19.14306 C 31.8264 %
319 16-06-2020 00:00:00 18.22986 C 36.8750 %
320 17-06-2020 00:00:00 18.10486 C 36.5347 %
321 18-06-2020 00:00:00 19.72569 C 31.4722 %
322 19-06-2020 00:00:00 17.11181 C 35.9028 %
323 20-06-2020 00:00:00 17.44514 C 34.6319 %
324 21-06-2020 00:00:00 20.65208 C 31.4097 %
325 22-06-2020 00:00:00 20.03958 C 29.0347 %
Sensor: Nr:Datum:Temp:Feuchte:
Aussen-T/F 326 23-06-2020 00:00:00 21.27708 C 29.8472 %
327 24-06-2020 00:00:00 22.32569 C 27.2222 %
328 25-06-2020 00:00:00 22.52222 C 26.3264 %
329 26-06-2020 00:00:00 23.33542 C 29.4306 %
330 27-06-2020 00:00:00 23.59236 C 27.9236 %
331 28-06-2020 00:00:00 20.15625 C 29.1181 %
332 29-06-2020 00:00:00 18.91667 C 29.3750 %
333 30-06-2020 00:00:00 17.63611 C 29.2500 %
334 01-07-2020 00:00:00 22.10764 C 27.2500 %
335 02-07-2020 00:00:00 19.35903 C 32.8611 %
336 03-07-2020 00:00:00 18.4375 C 30.9306 %
337 04-07-2020 00:00:00 19.56528 C 27.8056 %
338 05-07-2020 00:00:00 23.42222 C 26.5069 %
339 06-07-2020 00:00:00 16.97292 C 27.8264 %
340 07-07-2020 00:00:00 16.98611 C 30.0903 %
341 08-07-2020 00:00:00 15.99444 C 36.0486 %
342 09-07-2020 00:00:00 22.42361 C 30.2153 %
343 10-07-2020 00:00:00 18.77222 C 32.6042 %
344 11-07-2020 00:00:00 17.44167 C 29.9514 %
345 12-07-2020 00:00:00 18.36944 C 29.9792 %
346 13-07-2020 00:00:00 20.63333 C 27.9931 %
347 14-07-2020 00:00:00 19.57917 C 28.7153 %
348 15-07-2020 00:00:00 18.56806 C 29.6389 %
349 16-07-2020 00:00:00 16.03611 C 38.0625 %
350 17-07-2020 00:00:00 19.64375 C 32.7222 %
Sensor: Nr:Datum:Temp:Feuchte:
Aussen-T/F 351 18-07-2020 00:00:00 20.24406 C 31.3636 %
352 19-07-2020 00:00:00 23.3625 C 27.6597 %
353 20-07-2020 00:00:00 20.29931 C 28.6111 %
354 21-07-2020 00:00:00 18.99375 C 27.2083 %
355 22-07-2020 00:00:00 18.52222 C 28.8542 %
356 23-07-2020 00:00:00 20.38472 C 26.9306 %
357 24-07-2020 00:00:00 21.93889 C 24.3333 %
358 25-07-2020 00:00:00 21.73681 C 27.9583 %
359 26-07-2020 00:00:00 21.61944 C 29.2361 %
360 27-07-2020 00:00:00 22.74306 C 28.1181 %
361 28-07-2020 00:00:00 23.63681 C 22.2569 %
362 29-07-2020 00:00:00 20.21875 C 27.2083 %
363 30-07-2020 00:00:00 21.74306 C 27.3958 %
364 31-07-2020 00:00:00 25.38125 C 25.3056 %
365 01-08-2020 00:00:00 22.83611 C 31.0000 %
366 02-08-2020 00:00:00 22.3625 C 29.5694 %
Sensor: Nr:Datum:Temp:Feuchte:
G-T/H 1 03-08-2019 00:00:00 20.90667 C 59.1167 %
2 04-08-2019 00:00:00 20.4525 C 59.4750 %
3 05-08-2019 00:00:00 22.07 C 57.0167 %
4 06-08-2019 00:00:00 21.48083 C 59.7417 %
5 07-08-2019 00:00:00 21.08 C 63.1500 %
6 08-08-2019 00:00:00 20.60333 C 62.6167 %
7 09-08-2019 00:00:00 20.50167 C 64.6000 %
8 10-08-2019 00:00:00 20.38917 C 65.0917 %
9 11-08-2019 00:00:00 19.8725 C 64.3750 %
10 12-08-2019 00:00:00 19.0475 C 65.6000 %
11 13-08-2019 00:00:00 18.645 C 58.8417 %
12 14-08-2019 00:00:00 18.54583 C 57.0833 %
13 15-08-2019 00:00:00 18.91583 C 62.6250 %
14 16-08-2019 00:00:00 18.59917 C 65.5583 %
15 17-08-2019 00:00:00 18.78167 C 67.1583 %
16 18-08-2019 00:00:00 19.07417 C 68.7167 %
17 19-08-2019 00:00:00 19.70167 C 61.8833 %
18 20-08-2019 00:00:00 18.7775 C 58.6500 %
19 21-08-2019 00:00:00 18.37 C 62.6500 %
20 22-08-2019 00:00:00 18.7725 C 58.7167 %
21 23-08-2019 00:00:00 19.34333 C 56.0250 %
22 24-08-2019 00:00:00 19.1825 C 58.5917 %
23 25-08-2019 00:00:00 19.53 C 63.3500 %
24 26-08-2019 00:00:00 21.84417 C 64.5833 %
25 27-08-2019 00:00:00 21.31417 C 66.1667 %
Sensor: Nr:Datum:Temp:Feuchte:
G-T/H 26 28-08-2019 00:00:00 21.07 C 66.6583 %
27 29-08-2019 00:00:00 21.03417 C 66.8417 %
28 30-08-2019 00:00:00 20.6775 C 66.8917 %
29 31-08-2019 00:00:00 20.2775 C 66.5917 %
30 01-09-2019 00:00:00 20.59167 C 65.4167 %
31 02-09-2019 00:00:00 18.59583 C 51.3417 %
32 03-09-2019 00:00:00 16.5475 C 53.5583 %
33 04-09-2019 00:00:00 18.68667 C 56.9667 %
34 05-09-2019 00:00:00 18.34667 C 60.0000 %
35 06-09-2019 00:00:00 17.44333 C 56.1750 %
36 07-09-2019 00:00:00 17.36583 C 60.4417 %
37 08-09-2019 00:00:00 16.54309 C 65.9350 %
38 09-09-2019 00:00:00 16.06067 C 66.7333 %
39 10-09-2019 00:00:00 15.23333 C 63.6597 %
40 11-09-2019 00:00:00 15.74097 C 61.0833 %
41 12-09-2019 00:00:00 17.93194 C 67.6319 %
42 13-09-2019 00:00:00 18.68472 C 70.9653 %
43 14-09-2019 00:00:00 18.01181 C 65.5903 %
44 15-09-2019 00:00:00 17.60347 C 61.9722 %
45 16-09-2019 00:00:00 17.78264 C 60.7361 %
46 17-09-2019 00:00:00 17.67431 C 62.7083 %
47 18-09-2019 00:00:00 15.39444 C 57.2778 %
48 19-09-2019 00:00:00 14.12361 C 57.3125 %
49 20-09-2019 00:00:00 13.22639 C 59.3056 %
50 21-09-2019 00:00:00 15.10833 C 52.5278 %
Sensor: Nr:Datum:Temp:Feuchte:
G-T/H 51 22-09-2019 00:00:00 15.13194 C 59.2083 %
52 23-09-2019 00:00:00 16.27153 C 64.4028 %
53 24-09-2019 00:00:00 16.11528 C 66.2778 %
54 25-09-2019 00:00:00 16.20556 C 67.8681 %
55 26-09-2019 00:00:00 16.33542 C 69.4097 %
56 27-09-2019 00:00:00 16.76458 C 69.3611 %
57 28-09-2019 00:00:00 16.47083 C 68.9792 %
58 29-09-2019 00:00:00 16.41458 C 69.6528 %
59 30-09-2019 00:00:00 16.64236 C 66.7917 %
60 01-10-2019 00:00:00 16.54167 C 68.3542 %
61 02-10-2019 00:00:00 16.15694 C 67.3056 %
62 03-10-2019 00:00:00 14.67222 C 66.7361 %
63 04-10-2019 00:00:00 14.15556 C 70.1319 %
64 05-10-2019 00:00:00 14.31875 C 71.1667 %
65 06-10-2019 00:00:00 13.69306 C 70.7847 %
66 07-10-2019 00:00:00 13.58056 C 72.7153 %
67 08-10-2019 00:00:00 14.14097 C 74.1597 %
68 09-10-2019 00:00:00 14.23472 C 74.0486 %
69 10-10-2019 00:00:00 14.00139 C 74.0278 %
70 11-10-2019 00:00:00 13.98819 C 74.3333 %
71 12-10-2019 00:00:00 14.71181 C 71.7639 %
72 13-10-2019 00:00:00 15.13472 C 74.9097 %
73 14-10-2019 00:00:00 16.34722 C 74.3958 %
74 15-10-2019 00:00:00 15.98125 C 73.6597 %
75 16-10-2019 00:00:00 15.42708 C 73.2986 %
Sensor: Nr:Datum:Temp:Feuchte:
G-T/H 76 17-10-2019 00:00:00 15.28056 C 74.7292 %
77 18-10-2019 00:00:00 15.18681 C 74.6042 %
78 19-10-2019 00:00:00 14.72222 C 74.1944 %
79 20-10-2019 00:00:00 14.40278 C 81.1597 %
80 21-10-2019 00:00:00 14.60625 C 80.9028 %
81 22-10-2019 00:00:00 14.62153 C 77.5000 %
82 23-10-2019 00:00:00 14.00764 C 76.3542 %
83 24-10-2019 00:00:00 14.52986 C 78.0139 %
84 25-10-2019 00:00:00 15.10694 C 74.8681 %
85 26-10-2019 00:00:00 14.99028 C 74.2153 %
86 27-10-2019 00:00:00 14.43933 C 74.9333 %
87 28-10-2019 00:00:00 12.81389 C 71.1806 %
88 29-10-2019 00:00:00 12.35556 C 71.6389 %
89 30-10-2019 00:00:00 10.98611 C 65.8194 %
90 31-10-2019 00:00:00 9.49097 C 64.1736 %
91 01-11-2019 00:00:00 9.67014 C 69.2569 %
92 02-11-2019 00:00:00 12.01181 C 74.2222 %
93 03-11-2019 00:00:00 12.91806 C 75.4861 %
94 04-11-2019 00:00:00 12.97569 C 75.6250 %
95 05-11-2019 00:00:00 12.58194 C 75.9444 %
96 06-11-2019 00:00:00 12.33194 C 75.6528 %
97 07-11-2019 00:00:00 12.18403 C 75.3403 %
98 08-11-2019 00:00:00 11.13611 C 70.1181 %
99 09-11-2019 00:00:00 11.02014 C 69.0972 %
100 10-11-2019 00:00:00 9.95556 C 68.3056 %
Sensor: Nr:Datum:Temp:Feuchte:
G-T/H 101 11-11-2019 00:00:00 9.96458 C 71.2708 %
102 12-11-2019 00:00:00 10.11458 C 72.0972 %
103 13-11-2019 00:00:00 10.0125 C 72.4097 %
104 14-11-2019 00:00:00 9.73403 C 68.3958 %
105 15-11-2019 00:00:00 9.68819 C 69.4028 %
106 16-11-2019 00:00:00 9.6125 C 68.7083 %
107 17-11-2019 00:00:00 9.03819 C 69.9306 %
108 18-11-2019 00:00:00 9.47361 C 72.2500 %
109 19-11-2019 00:00:00 9.40903 C 72.0833 %
110 20-11-2019 00:00:00 8.93333 C 71.1181 %
111 21-11-2019 00:00:00 8.40559 C 70.8182 %
112 22-11-2019 00:00:00 8.70556 C 72.6736 %
113 23-11-2019 00:00:00 9.32569 C 73.0972 %
114 24-11-2019 00:00:00 9.08333 C 72.0764 %
115 25-11-2019 00:00:00 9.04375 C 73.5069 %
116 26-11-2019 00:00:00 9.85139 C 74.9375 %
117 27-11-2019 00:00:00 10.87847 C 75.9236 %
118 28-11-2019 00:00:00 11.51597 C 75.5069 %
119 29-11-2019 00:00:00 11.25208 C 72.3542 %
120 30-11-2019 00:00:00 9.66736 C 68.9097 %
121 01-12-2019 00:00:00 8.81806 C 70.1806 %
122 02-12-2019 00:00:00 8.35278 C 70.5417 %
123 03-12-2019 00:00:00 8.74514 C 73.3472 %
124 04-12-2019 00:00:00 8.79375 C 71.8403 %
125 05-12-2019 00:00:00 7.92014 C 69.1458 %
Sensor: Nr:Datum:Temp:Feuchte:
G-T/H 126 06-12-2019 00:00:00 7.57292 C 70.7014 %
127 07-12-2019 00:00:00 8.97014 C 74.4514 %
128 08-12-2019 00:00:00 10.25694 C 75.1667 %
129 09-12-2019 00:00:00 10.48403 C 74.1111 %
130 10-12-2019 00:00:00 9.34028 C 71.5903 %
131 11-12-2019 00:00:00 8.75694 C 73.1250 %
132 12-12-2019 00:00:00 8.81042 C 73.2500 %
133 13-12-2019 00:00:00 8.51944 C 72.1458 %
134 14-12-2019 00:00:00 8.92153 C 73.0764 %
135 15-12-2019 00:00:00 9.56736 C 74.6667 %
136 16-12-2019 00:00:00 9.90486 C 75.1389 %
137 17-12-2019 00:00:00 10.43333 C 75.4583 %
138 18-12-2019 00:00:00 10.925 C 75.4861 %
139 19-12-2019 00:00:00 9.76667 C 73.6667 %
140 20-12-2019 00:00:00 9.69375 C 75.0208 %
141 21-12-2019 00:00:00 10.06458 C 74.5833 %
142 22-12-2019 00:00:00 10.1375 C 75.1528 %
143 23-12-2019 00:00:00 10.30417 C 75.3681 %
144 24-12-2019 00:00:00 10.12639 C 74.9375 %
145 25-12-2019 00:00:00 10.24444 C 75.9653 %
146 26-12-2019 00:00:00 9.92708 C 75.2569 %
147 27-12-2019 00:00:00 9.69444 C 75.5833 %
148 28-12-2019 00:00:00 8.37639 C 70.3194 %
149 29-12-2019 00:00:00 7.21528 C 69.6875 %
150 30-12-2019 00:00:00 7.16944 C 69.0486 %
Sensor: Nr:Datum:Temp:Feuchte:
G-T/H 151 31-12-2019 00:00:00 6.93194 C 69.9722 %
152 01-01-2020 00:00:00 7.23125 C 70.8403 %
153 02-01-2020 00:00:00 7.28958 C 70.5417 %
154 03-01-2020 00:00:00 8.41389 C 73.4792 %
155 04-01-2020 00:00:00 9.12431 C 73.5833 %
156 05-01-2020 00:00:00 9.42917 C 73.5694 %
157 06-01-2020 00:00:00 9.33958 C 72.1181 %
158 07-01-2020 00:00:00 8.74583 C 72.1111 %
159 08-01-2020 00:00:00 9.18611 C 74.0347 %
160 09-01-2020 00:00:00 10.3875 C 76.5556 %
161 10-01-2020 00:00:00 11.02153 C 75.1389 %
162 11-01-2020 00:00:00 10.04097 C 73.2014 %
163 12-01-2020 00:00:00 9.14861 C 72.8958 %
164 13-01-2020 00:00:00 9.30833 C 74.5139 %
165 14-01-2020 00:00:00 9.78958 C 75.6597 %
166 15-01-2020 00:00:00 10.59028 C 75.5972 %
167 16-01-2020 00:00:00 10.82222 C 75.8264 %
168 17-01-2020 00:00:00 9.87847 C 74.9583 %
169 18-01-2020 00:00:00 9.38125 C 74.1597 %
170 19-01-2020 00:00:00 8.86667 C 74.2569 %
171 20-01-2020 00:00:00 8.75 C 73.1111 %
172 21-01-2020 00:00:00 7.77014 C 69.7847 %
173 22-01-2020 00:00:00 7.17083 C 69.5903 %
174 23-01-2020 00:00:00 7.63472 C 70.8611 %
175 24-01-2020 00:00:00 7.71319 C 70.9097 %
Sensor: Nr:Datum:Temp:Feuchte:
G-T/H 176 25-01-2020 00:00:00 7.96806 C 71.5139 %
177 26-01-2020 00:00:00 7.98611 C 72.6597 %
178 27-01-2020 00:00:00 8.21875 C 74.7500 %
179 28-01-2020 00:00:00 8.85833 C 75.1458 %
180 29-01-2020 00:00:00 8.44306 C 74.0000 %
181 30-01-2020 00:00:00 8.61389 C 74.8750 %
182 31-01-2020 00:00:00 10.32431 C 76.3958 %
183 01-02-2020 00:00:00 11.40556 C 76.3681 %
184 02-02-2020 00:00:00 11.15903 C 73.6736 %
185 03-02-2020 00:00:00 11.4875 C 75.0000 %
186 04-02-2020 00:00:00 10.54722 C 71.2847 %
187 05-02-2020 00:00:00 9.47153 C 71.9236 %
188 06-02-2020 00:00:00 8.34306 C 70.5208 %
189 07-02-2020 00:00:00 7.79097 C 69.9167 %
190 08-02-2020 00:00:00 7.33681 C 70.6528 %
191 09-02-2020 00:00:00 8.3 C 73.5694 %
192 10-02-2020 00:00:00 9.82708 C 73.9167 %
193 11-02-2020 00:00:00 9.18194 C 72.2431 %
194 12-02-2020 00:00:00 8.72083 C 72.8750 %
195 13-02-2020 00:00:00 8.20208 C 72.5208 %
196 14-02-2020 00:00:00 8.84653 C 74.7500 %
197 15-02-2020 00:00:00 8.93958 C 73.5903 %
198 16-02-2020 00:00:00 11.3125 C 68.1111 %
199 17-02-2020 00:00:00 11.77708 C 69.2778 %
200 18-02-2020 00:00:00 10.43056 C 67.4028 %
Sensor: Nr:Datum:Temp:Feuchte:
G-T/H 201 19-02-2020 00:00:00 9.94514 C 69.4583 %
202 20-02-2020 00:00:00 9.73472 C 71.6875 %
203 21-02-2020 00:00:00 9.56875 C 71.4931 %
204 22-02-2020 00:00:00 9.25625 C 72.0625 %
205 23-02-2020 00:00:00 10.38403 C 73.7708 %
206 24-02-2020 00:00:00 10.40903 C 71.9792 %
207 25-02-2020 00:00:00 10.88819 C 73.0278 %
208 26-02-2020 00:00:00 10.02917 C 68.9306 %
209 27-02-2020 00:00:00 9.17986 C 71.0208 %
210 28-02-2020 00:00:00 8.31042 C 73.7708 %
211 29-02-2020 00:00:00 9.28125 C 75.1597 %
212 01-03-2020 00:00:00 9.80486 C 74.3403 %
213 02-03-2020 00:00:00 9.67847 C 73.5833 %
214 03-03-2020 00:00:00 9.53681 C 73.3194 %
215 04-03-2020 00:00:00 8.95833 C 73.5139 %
216 05-03-2020 00:00:00 9.15833 C 73.9861 %
217 06-03-2020 00:00:00 9.48958 C 74.9514 %
218 07-03-2020 00:00:00 9.38611 C 74.0556 %
219 08-03-2020 00:00:00 9.99583 C 74.7292 %
220 09-03-2020 00:00:00 10.54861 C 73.8819 %
221 10-03-2020 00:00:00 10.28056 C 73.3819 %
222 11-03-2020 00:00:00 11.72083 C 75.8889 %
223 12-03-2020 00:00:00 12.29653 C 71.3333 %
224 13-03-2020 00:00:00 11.08333 C 68.2014 %
225 14-03-2020 00:00:00 10.32361 C 70.1250 %
Sensor: Nr:Datum:Temp:Feuchte:
G-T/H 226 15-03-2020 00:00:00 10.87153 C 65.1667 %
227 16-03-2020 00:00:00 10.71667 C 66.3819 %
228 17-03-2020 00:00:00 11.47153 C 70.7292 %
229 18-03-2020 00:00:00 11.42569 C 70.3472 %
230 19-03-2020 00:00:00 12.36736 C 67.4583 %
231 20-03-2020 00:00:00 12.53217 C 67.5944 %
232 21-03-2020 00:00:00 11.55903 C 63.9097 %
233 22-03-2020 00:00:00 9.66111 C 61.2292 %
234 23-03-2020 00:00:00 8.67431 C 62.8819 %
235 24-03-2020 00:00:00 8.04028 C 63.8611 %
236 25-03-2020 00:00:00 7.80833 C 63.4722 %
237 26-03-2020 00:00:00 8.04028 C 64.0208 %
238 27-03-2020 00:00:00 9.19722 C 61.4583 %
239 28-03-2020 00:00:00 10.48264 C 59.6944 %
240 29-03-2020 00:00:00 10.14855 C 60.5362 %
241 30-03-2020 00:00:00 8.62708 C 59.5417 %
242 31-03-2020 00:00:00 8.58472 C 62.8194 %
243 01-04-2020 00:00:00 8.20764 C 62.6181 %
244 02-04-2020 00:00:00 8.18194 C 64.4097 %
245 03-04-2020 00:00:00 9.17708 C 61.3125 %
246 04-04-2020 00:00:00 7.05486 C 55.4306 %
247 05-04-2020 00:00:00 9.21944 C 61.8056 %
248 06-04-2020 00:00:00 10.2125 C 63.7569 %
249 07-04-2020 00:00:00 13.11319 C 59.7083 %
250 08-04-2020 00:00:00 13.17153 C 61.2847 %
Sensor: Nr:Datum:Temp:Feuchte:
G-T/H 251 09-04-2020 00:00:00 13.65556 C 60.0069 %
252 10-04-2020 00:00:00 13.73681 C 60.7847 %
253 11-04-2020 00:00:00 13.3125 C 61.3611 %
254 12-04-2020 00:00:00 13.45 C 63.2500 %
255 13-04-2020 00:00:00 13.15556 C 59.7986 %
256 14-04-2020 00:00:00 11.44375 C 58.7847 %
257 15-04-2020 00:00:00 11.16875 C 56.8333 %
258 16-04-2020 00:00:00 11.42917 C 52.3542 %
259 17-04-2020 00:00:00 14.90625 C 55.3958 %
260 18-04-2020 00:00:00 14.63333 C 62.5347 %
261 19-04-2020 00:00:00 14.45833 C 64.6250 %
262 20-04-2020 00:00:00 13.53681 C 59.6042 %
263 21-04-2020 00:00:00 13.28819 C 58.7986 %
264 22-04-2020 00:00:00 13.43958 C 59.4167 %
265 23-04-2020 00:00:00 13.68125 C 59.6181 %
266 24-04-2020 00:00:00 14.95139 C 52.1875 %
267 25-04-2020 00:00:00 14.65694 C 48.8681 %
268 26-04-2020 00:00:00 11.22569 C 54.7014 %
269 27-04-2020 00:00:00 13.14028 C 57.4375 %
270 28-04-2020 00:00:00 13.66528 C 62.0139 %
271 29-04-2020 00:00:00 13.85625 C 64.5486 %
272 30-04-2020 00:00:00 14.0875 C 65.0556 %
273 01-05-2020 00:00:00 13.42361 C 65.1111 %
274 02-05-2020 00:00:00 12.90972 C 65.8542 %
275 03-05-2020 00:00:00 12.50278 C 65.6389 %
Sensor: Nr:Datum:Temp:Feuchte:
G-T/H 276 04-05-2020 00:00:00 13.3096 C 66.6560 %

Maximal/Minimal-Werte vom 03.08.2019 - 02.08.2020

Sensor Min Max Avg
Temp
(Aussen-T/F)
-5 °C
29-12-2019  07:23:17
43.5 °C
31-07-2020  17:11:17
11.46 °C
Feuchte
(Aussen-T/F)
20 %
03-08-2019  09:43:17
64 %
10-08-2019  05:43:17
31.69 %
Temp
(G-T/H)
4.2 °C
04-04-2020  07:31:18
25.7 °C
26-08-2019  15:08:17
12.22 °C
Feuchte
(G-T/H)
33 %
21-09-2019  16:35:17
83 %
20-10-2019  15:57:17
68.75 %

Die Daten stammen von einer Davis Vantage Pro 2 Wetter-Station und werden unter Linux mit der Software wview2wettercgi und aufbereitet. Alle Angaben erfolgen ohne Gewähr für ihre Vollständigkeit oder Richtigkeit.
Kontakt: Rainer Krienke krienke@uni-koblenz.de . Meine Webseiten an der Uni Koblenz oder privat.
Version: $Revision: 0.78 $